Location: Unspecified
(0.0000°N, 0.0000°E)
Time: 08:30:34
(UTC+00:00)

Envisat - Visible Passes

Search period start: 10 June 2023 00:00
Search period end: 20 June 2023 00:00
Orbit: 763 x 765 km, 98.2° (Epoch: 09 June)

Date Brightness Start Highest point End Pass type
(mag) Time Alt. Az. Time Alt. Az. Time Alt. Az.
10 Jun 4.9 03:19:18 10° NNE 03:21:16 24° NNE 03:21:16 24° NNE visible
11 Jun 5.9 02:43:14 10° NE 02:43:41 12° NE 02:43:41 12° NE visible
11 Jun 4.9 04:22:26 10° NNW 04:23:51 15° NW 04:23:51 15° NW visible
12 Jun 4.5 03:44:01 10° N 03:46:15 26° N 03:46:15 26° N visible
13 Jun 5.2 03:07:02 10° NNE 03:08:39 20° NE 03:08:39 20° NE visible
14 Jun 4.7 04:09:21 10° NNW 04:11:13 19° NW 04:11:13 19° NW visible
15 Jun 4.7 03:31:29 10° N 03:33:36 26° N 03:33:36 26° N visible
16 Jun 5.6 02:54:56 10° NE 02:56:00 16° NE 02:56:00 16° NE visible
16 Jun 5.1 04:35:51 10° NW 04:36:10 11° NW 04:36:10 11° NW visible
17 Jun 4.6 03:56:31 10° N 03:58:34 23° NNW 03:58:34 23° NNW visible
18 Jun 5.0 03:19:06 10° NNE 03:20:57 23° NNE 03:20:57 23° NNE visible
19 Jun 5.9 02:43:00 10° NE 02:43:21 11° NE 02:43:21 11° NE visible
19 Jun 5.0 04:22:17 10° NNW 04:23:30 14° NW 04:23:30 14° NW visible
